Time,TemperatureF,DewpointF,PressureIn,WindDirection,WindDirectionDegrees,WindSpeedMPH,WindSpeedGustMPH,Humidity,HourlyPrecipIn,Conditions,Clouds,dailyrainin,SolarRadiationWatts/m^2,SoftwareType,DateUTC
2013-06-04 00:12:00,76.0,69.0,-100.00,East,89,20.0,26.0,78,0.00,,,0.00,0.000000,,2013-06-04 10:12:00,
2013-06-04 00:22:00,76.0,69.0,-100.00,East,89,20.0,26.0,78,0.00,,,0.00,0.000000,,2013-06-04 10:22:00,
2013-06-04 00:32:00,76.0,69.0,-100.00,East,89,20.0,26.0,78,0.00,,,0.00,0.000000,,2013-06-04 10:32:00,
2013-06-04 00:42:00,76.0,69.0,-100.00,East,89,20.0,26.0,78,0.00,,,0.00,0.000000,,2013-06-04 10:42:00,
2013-06-04 01:12:00,76.0,68.0,-100.00,East,89,20.0,26.0,76,0.00,,,0.00,0.000000,,2013-06-04 11:12:00,
2013-06-04 01:22:00,76.0,68.0,-100.00,East,89,20.0,26.0,76,0.00,,,0.00,0.000000,,2013-06-04 11:22:00,
2013-06-04 01:32:00,76.0,68.0,-100.00,East,89,20.0,26.0,76,0.00,,,0.00,0.000000,,2013-06-04 11:32:00,
2013-06-04 01:42:00,76.0,68.0,-100.00,East,89,20.0,26.0,76,0.00,,,0.00,0.000000,,2013-06-04 11:42:00,
2013-06-04 02:12:00,76.0,69.0,-100.00,East,83,18.0,24.0,79,0.00,,,0.00,0.000000,,2013-06-04 12:12:00,
2013-06-04 02:22:00,76.0,69.0,-100.00,East,83,18.0,24.0,79,0.00,,,0.00,0.000000,,2013-06-04 12:22:00,
2013-06-04 02:32:00,76.0,69.0,-100.00,East,83,18.0,24.0,79,0.00,,,0.00,0.000000,,2013-06-04 12:32:00,
2013-06-04 02:42:00,76.0,69.0,-100.00,East,83,18.0,24.0,79,0.00,,,0.00,0.000000,,2013-06-04 12:42:00,
2013-06-04 03:12:00,76.0,69.0,-100.00,East,84,19.0,26.0,80,0.00,,,0.00,0.000000,,2013-06-04 13:12:00,
2013-06-04 03:22:00,76.0,69.0,-100.00,East,84,19.0,26.0,80,0.00,,,0.00,0.000000,,2013-06-04 13:22:00,
2013-06-04 03:32:00,76.0,69.0,-100.00,East,84,19.0,26.0,80,0.00,,,0.00,0.000000,,2013-06-04 13:32:00,
2013-06-04 03:42:00,76.0,69.0,-100.00,East,84,19.0,26.0,80,0.00,,,0.00,0.000000,,2013-06-04 13:42:00,
2013-06-04 04:12:00,76.0,67.0,-100.00,ENE,77,21.0,28.0,74,0.00,,,0.00,0.000000,,2013-06-04 14:12:00,
2013-06-04 04:22:00,76.0,67.0,-100.00,ENE,77,21.0,28.0,74,0.00,,,0.00,0.000000,,2013-06-04 14:22:00,
2013-06-04 04:32:00,76.0,67.0,-100.00,ENE,77,21.0,28.0,74,0.00,,,0.00,0.000000,,2013-06-04 14:32:00,
2013-06-04 04:42:00,76.0,67.0,-100.00,ENE,77,21.0,28.0,74,0.00,,,0.00,0.000000,,2013-06-04 14:42:00,
2013-06-04 05:12:00,76.0,67.0,-100.00,East,81,22.0,29.0,74,0.00,,,0.00,0.000000,,2013-06-04 15:12:00,
2013-06-04 05:22:00,76.0,67.0,-100.00,East,81,22.0,29.0,74,0.00,,,0.00,0.000000,,2013-06-04 15:22:00,
2013-06-04 05:33:00,76.0,67.0,-100.00,East,81,22.0,29.0,74,0.00,,,0.00,0.000000,,2013-06-04 15:33:00,
2013-06-04 05:42:00,76.0,67.0,-100.00,East,81,22.0,29.0,74,0.00,,,0.00,0.000000,,2013-06-04 15:42:00,
2013-06-04 06:12:00,76.0,67.0,-100.00,East,83,20.0,30.0,73,0.00,,,0.00,0.000000,,2013-06-04 16:12:00,
2013-06-04 06:22:00,76.0,67.0,-100.00,East,83,20.0,30.0,73,0.00,,,0.00,0.000000,,2013-06-04 16:22:00,
2013-06-04 06:32:00,76.0,67.0,-100.00,East,83,20.0,30.0,73,0.00,,,0.00,0.000000,,2013-06-04 16:32:00,
2013-06-04 06:42:00,76.0,67.0,-100.00,East,83,20.0,30.0,73,0.00,,,0.00,0.000000,,2013-06-04 16:42:00,
2013-06-04 07:12:00,76.0,68.0,-100.00,East,82,18.0,25.0,76,0.00,,,0.00,29.000000,,2013-06-04 17:12:00,
2013-06-04 07:23:00,76.0,68.0,-100.00,East,82,18.0,25.0,76,0.00,,,0.00,29.000000,,2013-06-04 17:23:00,
2013-06-04 07:32:00,76.0,68.0,-100.00,East,82,18.0,25.0,76,0.00,,,0.00,29.000000,,2013-06-04 17:32:00,
2013-06-04 07:42:00,76.0,68.0,-100.00,East,82,18.0,25.0,76,0.00,,,0.00,29.000000,,2013-06-04 17:42:00,
2013-06-04 08:12:00,78.0,68.0,-100.00,ENE,76,20.0,27.0,71,0.00,,,0.00,145.000000,,2013-06-04 18:12:00,
2013-06-04 08:22:00,78.0,68.0,-100.00,ENE,76,20.0,27.0,71,0.00,,,0.00,145.000000,,2013-06-04 18:22:00,
2013-06-04 08:32:00,78.0,68.0,-100.00,ENE,76,20.0,27.0,71,0.00,,,0.00,145.000000,,2013-06-04 18:32:00,
2013-06-04 08:42:00,78.0,68.0,-100.00,ENE,76,20.0,27.0,71,0.00,,,0.00,145.000000,,2013-06-04 18:42:00,
2013-06-04 09:22:00,78.0,67.0,-100.00,ENE,75,19.0,25.0,68,0.00,,,0.00,421.000000,,2013-06-04 19:22:00,
2013-06-04 09:32:00,78.0,67.0,-100.00,ENE,75,19.0,25.0,68,0.00,,,0.00,421.000000,,2013-06-04 19:32:00,
2013-06-04 09:42:00,78.0,67.0,-100.00,ENE,75,19.0,25.0,68,0.00,,,0.00,421.000000,,2013-06-04 19:42:00,
2013-06-04 10:12:00,79.0,69.0,-100.00,East,80,20.0,26.0,71,0.00,,,0.00,546.000000,,2013-06-04 20:12:00,
2013-06-04 10:22:00,79.0,69.0,-100.00,East,80,20.0,26.0,71,0.00,,,0.00,546.000000,,2013-06-04 20:22:00,
2013-06-04 10:32:00,79.0,69.0,-100.00,East,80,20.0,26.0,71,0.00,,,0.00,546.000000,,2013-06-04 20:32:00,
2013-06-04 10:42:00,79.0,69.0,-100.00,East,80,20.0,26.0,71,0.00,,,0.00,546.000000,,2013-06-04 20:42:00,
2013-06-04 11:12:00,81.0,69.0,-100.00,East,89,19.0,25.0,67,0.00,,,0.00,921.000000,,2013-06-04 21:12:00,
2013-06-04 11:22:00,81.0,69.0,-100.00,East,89,19.0,25.0,67,0.00,,,0.00,921.000000,,2013-06-04 21:22:00,
2013-06-04 11:33:00,81.0,69.0,-100.00,East,89,19.0,25.0,67,0.00,,,0.00,921.000000,,2013-06-04 21:33:00,
2013-06-04 11:42:00,81.0,69.0,-100.00,East,89,19.0,25.0,67,0.00,,,0.00,921.000000,,2013-06-04 21:42:00,
2013-06-04 12:12:00,80.0,67.0,-100.00,East,86,18.0,25.0,64,0.00,,,0.00,911.000000,,2013-06-04 22:12:00,
2013-06-04 12:22:00,80.0,67.0,-100.00,East,86,18.0,25.0,64,0.00,,,0.00,911.000000,,2013-06-04 22:22:00,
2013-06-04 12:32:00,80.0,67.0,-100.00,East,86,18.0,25.0,64,0.00,,,0.00,911.000000,,2013-06-04 22:32:00,
2013-06-04 12:42:00,80.0,67.0,-100.00,East,86,18.0,25.0,64,0.00,,,0.00,911.000000,,2013-06-04 22:42:00,
2013-06-04 13:12:00,80.0,68.0,-100.00,East,82,19.0,25.0,67,0.00,,,-99.99,819.000000,,2013-06-04 23:12:00,
2013-06-04 13:22:00,80.0,68.0,-100.00,East,82,19.0,25.0,67,0.00,,,-99.99,819.000000,,2013-06-04 23:22:00,
2013-06-04 13:32:00,80.0,68.0,-100.00,East,82,19.0,25.0,67,0.00,,,-99.99,819.000000,,2013-06-04 23:32:00,
2013-06-04 13:42:00,80.0,68.0,-100.00,East,82,19.0,25.0,67,0.00,,,-99.99,819.000000,,2013-06-04 23:42:00,
2013-06-04 14:12:00,80.0,70.0,-100.00,East,79,19.0,26.0,71,0.00,,,0.00,910.000000,,2013-06-05 00:12:00,
2013-06-04 14:22:00,80.0,70.0,-100.00,East,79,19.0,26.0,71,0.00,,,0.00,910.000000,,2013-06-05 00:22:00,
2013-06-04 14:32:00,80.0,70.0,-100.00,East,79,19.0,26.0,71,0.00,,,0.00,910.000000,,2013-06-05 00:32:00,
2013-06-04 14:42:00,80.0,70.0,-100.00,East,79,19.0,26.0,71,0.00,,,0.00,910.000000,,2013-06-05 00:42:00,
2013-06-04 15:12:00,80.0,69.0,-100.00,East,88,20.0,25.0,69,0.00,,,0.00,1070.000000,,2013-06-05 01:12:00,
2013-06-04 15:22:00,80.0,69.0,-100.00,East,88,20.0,25.0,69,0.00,,,0.00,1070.000000,,2013-06-05 01:22:00,
2013-06-04 15:32:00,80.0,69.0,-100.00,East,88,20.0,25.0,69,0.00,,,0.00,1070.000000,,2013-06-05 01:32:00,
2013-06-04 15:42:00,80.0,69.0,-100.00,East,88,20.0,25.0,69,0.00,,,0.00,1070.000000,,2013-06-05 01:42:00,
2013-06-04 16:12:00,80.0,69.0,-100.00,East,84,19.0,25.0,70,0.00,,,0.00,846.000000,,2013-06-05 02:12:00,
2013-06-04 16:22:00,80.0,69.0,-100.00,East,84,19.0,25.0,70,0.00,,,0.00,846.000000,,2013-06-05 02:22:00,
2013-06-04 16:32:00,80.0,69.0,-100.00,East,84,19.0,25.0,70,0.00,,,0.00,846.000000,,2013-06-05 02:32:00,
2013-06-04 16:42:00,80.0,69.0,-100.00,East,84,19.0,25.0,70,0.00,,,0.00,846.000000,,2013-06-05 02:42:00,
2013-06-04 17:12:00,79.0,69.0,-100.00,East,79,19.0,25.0,72,0.00,,,0.00,650.000000,,2013-06-05 03:12:00,
2013-06-04 17:22:00,79.0,69.0,-100.00,East,79,19.0,25.0,72,0.00,,,0.00,650.000000,,2013-06-05 03:22:00,
2013-06-04 17:33:00,79.0,69.0,-100.00,East,79,19.0,25.0,72,0.00,,,0.00,650.000000,,2013-06-05 03:33:00,
2013-06-04 17:43:00,79.0,69.0,-100.00,East,79,19.0,25.0,72,0.00,,,0.00,650.000000,,2013-06-05 03:43:00,
2013-06-04 18:13:00,77.0,69.0,-100.00,East,79,18.0,25.0,77,0.00,,,0.00,337.000000,,2013-06-05 04:13:00,
2013-06-04 18:22:00,77.0,69.0,-100.00,East,79,18.0,25.0,77,0.00,,,0.00,337.000000,,2013-06-05 04:22:00,
2013-06-04 18:33:00,77.0,69.0,-100.00,East,79,18.0,25.0,77,0.00,,,0.00,337.000000,,2013-06-05 04:33:00,
2013-06-04 18:42:00,77.0,69.0,-100.00,East,79,18.0,25.0,77,0.00,,,0.00,337.000000,,2013-06-05 04:42:00,
2013-06-04 19:12:00,77.0,69.0,-100.00,East,80,19.0,24.0,76,0.00,,,0.00,85.000000,,2013-06-05 05:12:00,
2013-06-04 19:22:00,77.0,69.0,-100.00,East,80,19.0,24.0,76,0.00,,,0.00,85.000000,,2013-06-05 05:22:00,
2013-06-04 19:32:00,77.0,69.0,-100.00,East,80,19.0,24.0,76,0.00,,,0.00,85.000000,,2013-06-05 05:32:00,
2013-06-04 19:42:00,77.0,69.0,-100.00,East,80,19.0,24.0,76,0.00,,,0.00,85.000000,,2013-06-05 05:42:00,
2013-06-04 20:12:00,76.0,68.0,-100.00,East,86,17.0,24.0,77,0.00,,,0.00,15.000000,,2013-06-05 06:12:00,
2013-06-04 20:22:00,76.0,68.0,-100.00,East,86,17.0,24.0,77,0.00,,,0.00,15.000000,,2013-06-05 06:22:00,
2013-06-04 20:32:00,76.0,68.0,-100.00,East,86,17.0,24.0,77,0.00,,,0.00,15.000000,,2013-06-05 06:32:00,
2013-06-04 20:42:00,76.0,68.0,-100.00,East,86,17.0,24.0,77,0.00,,,0.00,15.000000,,2013-06-05 06:42:00,
2013-06-04 21:12:00,76.0,68.0,-100.00,East,87,18.0,24.0,77,0.00,,,0.00,0.000000,,2013-06-05 07:12:00,
2013-06-04 21:22:00,76.0,68.0,-100.00,East,87,18.0,24.0,77,0.00,,,0.00,0.000000,,2013-06-05 07:22:00,
2013-06-04 21:32:00,76.0,68.0,-100.00,East,87,18.0,24.0,77,0.00,,,0.00,0.000000,,2013-06-05 07:32:00,
2013-06-04 21:42:00,76.0,68.0,-100.00,East,87,18.0,24.0,77,0.00,,,0.00,0.000000,,2013-06-05 07:42:00,
2013-06-04 22:12:00,76.0,68.0,-100.00,East,85,19.0,25.0,76,0.00,,,0.00,0.000000,,2013-06-05 08:12:00,
2013-06-04 22:22:00,76.0,68.0,-100.00,East,85,19.0,25.0,76,0.00,,,0.00,0.000000,,2013-06-05 08:22:00,
2013-06-04 22:32:00,76.0,68.0,-100.00,East,85,19.0,25.0,76,0.00,,,0.00,0.000000,,2013-06-05 08:32:00,
2013-06-04 22:42:00,76.0,68.0,-100.00,East,85,19.0,25.0,76,0.00,,,0.00,0.000000,,2013-06-05 08:42:00,
2013-06-04 23:12:00,76.0,69.0,-100.00,East,86,17.0,23.0,78,0.00,,,0.00,0.000000,,2013-06-05 09:12:00,
2013-06-04 23:22:00,76.0,69.0,-100.00,East,86,17.0,23.0,78,0.00,,,0.00,0.000000,,2013-06-05 09:22:00,
2013-06-04 23:32:00,76.0,69.0,-100.00,East,86,17.0,23.0,78,0.00,,,0.00,0.000000,,2013-06-05 09:32:00,
2013-06-04 23:42:00,76.0,69.0,-100.00,East,86,17.0,23.0,78,0.00,,,0.00,0.000000,,2013-06-05 09:42:00,